Year,Month,Day,Hour,Minute,Value (Times are PST for temperature in C)
2017,05,17,00,00,9.70
2017,05,17,00,01,9.70
2017,05,17,00,02,9.60
2017,05,17,00,03,9.60
2017,05,17,00,04,9.60
2017,05,17,00,05,9.60
2017,05,17,00,06,9.60
2017,05,17,00,07,9.60
2017,05,17,00,08,9.60
2017,05,17,00,09,9.60
2017,05,17,00,10,9.60
2017,05,17,00,11,9.60
2017,05,17,00,12,9.60
2017,05,17,00,13,9.60
2017,05,17,00,14,9.60
2017,05,17,00,15,9.60
2017,05,17,00,16,9.60
2017,05,17,00,17,9.60
2017,05,17,00,18,9.60
2017,05,17,00,19,9.60
2017,05,17,00,20,9.50
2017,05,17,00,21,9.60
2017,05,17,00,22,9.60
2017,05,17,00,23,9.60
2017,05,17,00,24,9.60
2017,05,17,00,25,9.60
2017,05,17,00,26,9.60
2017,05,17,00,27,9.60
2017,05,17,00,28,9.60
2017,05,17,00,29,9.60
2017,05,17,00,30,9.60
2017,05,17,00,31,9.60
2017,05,17,00,32,9.60
2017,05,17,00,33,9.60
2017,05,17,00,34,9.60
2017,05,17,00,35,9.60
2017,05,17,00,36,9.60
2017,05,17,00,37,9.60
2017,05,17,00,38,9.60
2017,05,17,00,39,9.70
2017,05,17,00,40,9.70
2017,05,17,00,41,9.70
2017,05,17,00,42,9.70
2017,05,17,00,43,9.70
2017,05,17,00,44,9.70
2017,05,17,00,45,9.80
2017,05,17,00,46,9.80
2017,05,17,00,47,9.80
2017,05,17,00,48,9.80
2017,05,17,00,49,9.80
2017,05,17,00,50,9.80
2017,05,17,00,51,9.80
2017,05,17,00,52,9.80
2017,05,17,00,53,9.80
2017,05,17,00,54,9.80
2017,05,17,00,55,9.80
2017,05,17,00,56,9.80
2017,05,17,00,57,9.80
2017,05,17,00,58,9.80
2017,05,17,00,59,9.80
2017,05,17,01,00,9.80
2017,05,17,01,01,9.80
2017,05,17,01,02,9.80
2017,05,17,01,03,9.80
2017,05,17,01,04,9.80
2017,05,17,01,05,9.80
2017,05,17,01,06,9.80
2017,05,17,01,07,9.80
2017,05,17,01,08,9.80
2017,05,17,01,09,9.80
2017,05,17,01,10,9.80
2017,05,17,01,11,9.80
2017,05,17,01,12,9.80
2017,05,17,01,13,9.80
2017,05,17,01,14,9.80
2017,05,17,01,15,9.80
2017,05,17,01,16,9.80
2017,05,17,01,17,9.80
2017,05,17,01,18,9.80
2017,05,17,01,19,9.80
2017,05,17,01,20,9.80
2017,05,17,01,21,9.80
2017,05,17,01,22,9.70
2017,05,17,01,23,9.70
2017,05,17,01,24,9.70
2017,05,17,01,25,9.70
2017,05,17,01,26,9.70
2017,05,17,01,27,9.70
2017,05,17,01,28,9.70
2017,05,17,01,29,9.70
2017,05,17,01,30,9.70
2017,05,17,01,31,9.60
2017,05,17,01,32,9.60
2017,05,17,01,33,9.60
2017,05,17,01,34,9.60
2017,05,17,01,35,9.60
2017,05,17,01,36,9.60
2017,05,17,01,37,9.60
2017,05,17,01,38,9.60
2017,05,17,01,39,9.60
2017,05,17,01,40,9.60
2017,05,17,01,41,9.60
2017,05,17,01,42,9.60
2017,05,17,01,43,9.60
2017,05,17,01,44,9.60
2017,05,17,01,45,9.50
2017,05,17,01,46,9.50
2017,05,17,01,47,9.50
2017,05,17,01,48,9.50
2017,05,17,01,49,9.50
2017,05,17,01,50,9.50
2017,05,17,01,51,9.50
2017,05,17,01,52,9.50
2017,05,17,01,53,9.50
2017,05,17,01,54,9.50
2017,05,17,01,55,9.50
2017,05,17,01,56,9.50
2017,05,17,01,57,9.50
2017,05,17,01,58,9.50
2017,05,17,01,59,9.50
2017,05,17,02,00,9.50
2017,05,17,02,01,9.50
2017,05,17,02,02,9.50
2017,05,17,02,03,9.50
2017,05,17,02,04,9.50
2017,05,17,02,05,9.50
2017,05,17,02,06,9.50
2017,05,17,02,07,9.60
2017,05,17,02,08,9.60
2017,05,17,02,09,9.60
2017,05,17,02,10,9.60
2017,05,17,02,11,9.60
2017,05,17,02,12,9.60
2017,05,17,02,13,9.60
2017,05,17,02,14,9.60
2017,05,17,02,15,9.60
2017,05,17,02,16,9.60
2017,05,17,02,17,9.60
2017,05,17,02,18,9.60
2017,05,17,02,19,9.60
2017,05,17,02,20,9.60
2017,05,17,02,21,9.50
2017,05,17,02,22,9.50
2017,05,17,02,23,9.50
2017,05,17,02,24,9.50
2017,05,17,02,25,9.50
2017,05,17,02,26,9.50
2017,05,17,02,27,9.50
2017,05,17,02,28,9.50
2017,05,17,02,29,9.50
2017,05,17,02,30,9.50
2017,05,17,02,31,9.50
2017,05,17,02,32,9.40
2017,05,17,02,33,9.40
2017,05,17,02,34,9.40
2017,05,17,02,35,9.40
2017,05,17,02,36,9.40
2017,05,17,02,37,9.40
2017,05,17,02,38,9.40
2017,05,17,02,39,9.40
2017,05,17,02,40,9.40
2017,05,17,02,41,9.40
2017,05,17,02,42,9.40
2017,05,17,02,43,9.40
2017,05,17,02,44,9.40
2017,05,17,02,45,9.40
2017,05,17,02,46,9.30
2017,05,17,02,47,9.30
2017,05,17,02,48,9.30
2017,05,17,02,49,9.40
2017,05,17,02,50,9.40
2017,05,17,02,51,9.40
2017,05,17,02,52,9.40
2017,05,17,02,53,9.40
2017,05,17,02,54,9.40
2017,05,17,02,55,9.40
2017,05,17,02,56,9.40
2017,05,17,02,57,9.40
2017,05,17,02,58,9.40
2017,05,17,02,59,9.40
2017,05,17,03,00,9.40
2017,05,17,03,01,9.40
2017,05,17,03,02,9.40
2017,05,17,03,03,9.40
2017,05,17,03,04,9.40
2017,05,17,03,05,9.40
2017,05,17,03,06,9.40
2017,05,17,03,07,9.40
2017,05,17,03,08,9.40
2017,05,17,03,09,9.50
2017,05,17,03,10,9.50
2017,05,17,03,11,9.50
2017,05,17,03,12,9.50
2017,05,17,03,13,9.50
2017,05,17,03,14,9.50
2017,05,17,03,15,9.50
2017,05,17,03,16,9.50
2017,05,17,03,17,9.50
2017,05,17,03,18,9.50
2017,05,17,03,19,9.50
2017,05,17,03,20,9.60
2017,05,17,03,21,9.60
2017,05,17,03,22,9.60
2017,05,17,03,23,9.60
2017,05,17,03,24,9.60
2017,05,17,03,25,9.60
2017,05,17,03,26,9.60
2017,05,17,03,27,9.60
2017,05,17,03,28,9.60
2017,05,17,03,29,9.60
2017,05,17,03,30,9.60
2017,05,17,03,31,9.60
2017,05,17,03,32,9.60
2017,05,17,03,33,9.60
2017,05,17,03,34,9.60
2017,05,17,03,35,9.60
2017,05,17,03,36,9.60
2017,05,17,03,37,9.60
2017,05,17,03,38,9.60
2017,05,17,03,39,9.60
2017,05,17,03,40,9.60
2017,05,17,03,41,9.60
2017,05,17,03,42,9.60
2017,05,17,03,43,9.60
2017,05,17,03,44,9.50
2017,05,17,03,45,9.50
2017,05,17,03,46,9.60
2017,05,17,03,47,9.50
2017,05,17,03,48,9.60
2017,05,17,03,49,9.50
2017,05,17,03,50,9.50
2017,05,17,03,51,9.50
2017,05,17,03,52,9.50
2017,05,17,03,53,9.50
2017,05,17,03,54,9.50
2017,05,17,03,55,9.50
2017,05,17,03,56,9.50
2017,05,17,03,57,9.50
2017,05,17,03,58,9.60
2017,05,17,03,59,9.60
2017,05,17,04,00,9.60
2017,05,17,04,01,9.60
2017,05,17,04,02,9.60
2017,05,17,04,03,9.60
2017,05,17,05,04,9.40
2017,05,17,05,05,9.40
2017,05,17,05,06,9.40
2017,05,17,05,07,9.40
2017,05,17,05,08,9.40
2017,05,17,05,09,9.40
2017,05,17,05,10,9.40
2017,05,17,05,11,9.40
2017,05,17,05,12,9.40
2017,05,17,05,13,9.40
2017,05,17,05,14,9.40
2017,05,17,05,15,9.40
2017,05,17,05,16,9.40
2017,05,17,05,17,9.40
2017,05,17,05,18,9.40
2017,05,17,05,19,9.40
2017,05,17,05,20,9.30
2017,05,17,05,21,9.40
2017,05,17,05,22,9.40
2017,05,17,05,23,9.40
2017,05,17,05,24,9.40
2017,05,17,05,25,9.40
2017,05,17,05,26,9.40
2017,05,17,05,27,9.40
2017,05,17,05,28,9.40
2017,05,17,05,29,9.40
2017,05,17,05,30,9.40
2017,05,17,05,31,9.40
2017,05,17,05,32,9.40
2017,05,17,05,33,9.40
2017,05,17,05,34,9.40
2017,05,17,05,35,9.40
2017,05,17,05,36,9.40
2017,05,17,05,37,9.40
2017,05,17,05,38,9.40
2017,05,17,05,39,9.40
2017,05,17,05,40,9.40
2017,05,17,05,41,9.40
2017,05,17,05,42,9.40
2017,05,17,05,43,9.30
2017,05,17,05,44,9.40
2017,05,17,05,45,9.30
2017,05,17,05,46,9.40
2017,05,17,05,47,9.40
2017,05,17,05,48,9.40
2017,05,17,05,49,9.40
2017,05,17,05,50,9.40
2017,05,17,05,51,9.40
2017,05,17,05,52,9.40
2017,05,17,05,53,9.40
2017,05,17,05,54,9.40
2017,05,17,05,55,9.40
2017,05,17,05,56,9.40
2017,05,17,05,57,9.40
2017,05,17,05,58,9.40
2017,05,17,05,59,9.40
2017,05,17,06,00,9.40
2017,05,17,06,01,9.40
2017,05,17,06,02,9.40
2017,05,17,06,03,9.40
2017,05,17,06,04,9.40
2017,05,17,06,05,9.40
2017,05,17,06,06,9.40
2017,05,17,06,07,9.40
2017,05,17,06,08,9.40
2017,05,17,06,09,9.40
2017,05,17,06,10,9.40
2017,05,17,06,11,9.40
2017,05,17,06,12,9.40
2017,05,17,06,13,9.40
2017,05,17,06,14,9.40
2017,05,17,06,15,9.40
2017,05,17,06,16,9.40
2017,05,17,06,17,9.40
2017,05,17,06,18,9.40
2017,05,17,06,19,9.40
2017,05,17,06,20,9.40
2017,05,17,06,21,9.40
2017,05,17,06,22,9.40
2017,05,17,06,23,9.40
2017,05,17,06,24,9.40
2017,05,17,06,25,9.40
2017,05,17,06,26,9.40
2017,05,17,06,27,9.40
2017,05,17,06,28,9.40
2017,05,17,06,29,9.40
2017,05,17,06,30,9.40
2017,05,17,06,31,9.40
2017,05,17,06,32,9.40
2017,05,17,06,33,9.40
2017,05,17,06,34,9.40
2017,05,17,06,35,9.40
2017,05,17,06,36,9.40
2017,05,17,06,37,9.40
2017,05,17,06,38,9.40
2017,05,17,06,39,9.40
2017,05,17,06,40,9.50
2017,05,17,06,41,9.50
2017,05,17,06,42,9.50
2017,05,17,06,43,9.50
2017,05,17,06,44,9.50
2017,05,17,06,45,9.50
2017,05,17,06,46,9.50
2017,05,17,06,47,9.60
2017,05,17,06,48,9.60
2017,05,17,06,49,9.60
2017,05,17,06,50,9.60
2017,05,17,06,51,9.60
2017,05,17,06,52,9.60
2017,05,17,06,53,9.70
2017,05,17,06,54,9.70
2017,05,17,06,55,9.70
2017,05,17,06,56,9.70
2017,05,17,06,57,9.70
2017,05,17,06,58,9.70
2017,05,17,06,59,9.80
2017,05,17,07,00,9.80
2017,05,17,07,01,9.80
2017,05,17,07,02,9.80
2017,05,17,07,03,9.80
2017,05,17,07,04,9.90
2017,05,17,07,05,9.90
2017,05,17,07,06,9.90
2017,05,17,07,07,9.90
2017,05,17,07,08,10.00
2017,05,17,07,09,10.00
2017,05,17,07,10,10.00
2017,05,17,07,11,10.10
2017,05,17,07,12,10.10
2017,05,17,07,13,10.10
2017,05,17,07,14,10.20
2017,05,17,07,15,10.20
2017,05,17,07,16,10.20
2017,05,17,07,17,10.30
2017,05,17,07,18,10.30
2017,05,17,07,19,10.30
2017,05,17,07,20,10.30
2017,05,17,07,21,10.30
2017,05,17,07,22,10.40
2017,05,17,07,23,10.40
2017,05,17,07,24,10.40
2017,05,17,07,25,10.40
2017,05,17,07,26,10.40
2017,05,17,07,27,10.50
2017,05,17,07,28,10.40
2017,05,17,07,29,10.50
2017,05,17,07,30,10.50
2017,05,17,07,31,10.50
2017,05,17,07,32,10.50
2017,05,17,07,33,10.60
2017,05,17,07,34,10.60
2017,05,17,07,35,10.70
2017,05,17,07,36,10.70
2017,05,17,07,37,10.80
2017,05,17,07,38,10.80
2017,05,17,07,39,10.90
2017,05,17,07,40,10.90
2017,05,17,07,41,11.00
2017,05,17,07,42,11.00
2017,05,17,07,43,11.10
2017,05,17,07,44,11.10
2017,05,17,07,45,11.20
2017,05,17,07,46,11.20
2017,05,17,07,47,11.20
2017,05,17,07,48,11.20
2017,05,17,07,49,11.30
2017,05,17,07,50,11.30
2017,05,17,07,51,11.30
2017,05,17,07,52,11.30
2017,05,17,07,53,11.30
2017,05,17,07,54,11.30
2017,05,17,07,55,11.40
2017,05,17,07,56,11.40
2017,05,17,07,57,11.50
2017,05,17,07,58,11.50
2017,05,17,07,59,11.60
2017,05,17,08,00,11.60
2017,05,17,08,01,11.70
2017,05,17,08,02,11.70
2017,05,17,08,03,11.80
2017,05,17,08,04,11.80
2017,05,17,08,05,11.90
2017,05,17,08,06,11.90
2017,05,17,08,07,11.90
2017,05,17,08,08,11.90
2017,05,17,08,09,11.90
2017,05,17,08,10,11.90
2017,05,17,08,11,11.90
2017,05,17,08,12,11.90
2017,05,17,08,13,12.00
2017,05,17,08,14,12.00
2017,05,17,08,15,12.00
2017,05,17,08,16,12.10
2017,05,17,08,17,12.10
2017,05,17,08,18,12.10
2017,05,17,08,19,12.20
2017,05,17,08,20,12.20
2017,05,17,08,21,12.30
2017,05,17,08,22,12.30
2017,05,17,08,23,12.30
2017,05,17,08,24,12.30
2017,05,17,08,25,12.30
2017,05,17,08,26,12.30
2017,05,17,08,27,12.30
2017,05,17,08,28,12.40
2017,05,17,08,29,12.40
2017,05,17,08,30,12.40
2017,05,17,08,31,12.40
2017,05,17,08,32,12.40
2017,05,17,08,33,12.40
2017,05,17,08,34,12.50
2017,05,17,08,35,12.50
2017,05,17,08,36,12.50
2017,05,17,08,37,12.60
2017,05,17,08,38,12.70
2017,05,17,08,39,12.70
2017,05,17,08,40,12.80
2017,05,17,08,41,12.90
2017,05,17,08,42,12.90
2017,05,17,08,43,12.90
2017,05,17,08,44,12.90
2017,05,17,08,45,12.90
2017,05,17,08,46,12.90
2017,05,17,08,47,12.90
2017,05,17,08,48,12.90
2017,05,17,08,49,12.90
2017,05,17,08,50,12.80
2017,05,17,08,51,12.70
2017,05,17,08,52,12.70
2017,05,17,08,53,12.60
2017,05,17,08,54,12.50
2017,05,17,08,55,12.50
2017,05,17,08,56,12.40
2017,05,17,08,57,12.40
2017,05,17,08,58,12.40
2017,05,17,08,59,12.40
2017,05,17,09,00,12.40
2017,05,17,09,01,12.40
2017,05,17,09,02,12.40
2017,05,17,09,03,12.40
2017,05,17,09,04,12.50
2017,05,17,09,05,12.60
2017,05,17,09,06,12.70
2017,05,17,09,07,12.70
2017,05,17,09,08,12.80
2017,05,17,09,09,12.90
2017,05,17,09,10,12.90
2017,05,17,09,11,13.00
2017,05,17,09,12,13.10
2017,05,17,09,13,13.20
2017,05,17,09,14,13.30
2017,05,17,09,15,13.30
2017,05,17,09,16,13.30
2017,05,17,09,17,13.30
2017,05,17,09,18,13.30
2017,05,17,09,19,13.40
2017,05,17,09,20,13.40
2017,05,17,09,21,13.40
2017,05,17,09,22,13.40
2017,05,17,09,23,13.50
2017,05,17,09,24,13.50
2017,05,17,09,25,13.50
2017,05,17,09,26,13.60
2017,05,17,09,27,13.60
2017,05,17,09,28,13.60
2017,05,17,09,29,13.60
2017,05,17,09,30,13.50
2017,05,17,09,31,13.50
2017,05,17,09,32,13.40
2017,05,17,09,33,13.40
2017,05,17,09,34,13.40
2017,05,17,09,35,13.40
2017,05,17,09,36,13.40
2017,05,17,09,37,13.40
2017,05,17,09,38,13.40
2017,05,17,09,39,13.40
2017,05,17,09,40,13.40
2017,05,17,09,41,13.40
2017,05,17,09,42,13.40
2017,05,17,09,43,13.50
2017,05,17,09,44,13.50
2017,05,17,09,45,13.60
2017,05,17,09,46,13.60
2017,05,17,09,47,13.70
2017,05,17,09,48,13.70
2017,05,17,09,49,13.70
2017,05,17,09,50,13.70
2017,05,17,09,51,13.60
2017,05,17,09,52,13.50
2017,05,17,09,53,13.40
2017,05,17,09,54,13.40
2017,05,17,09,55,13.40
2017,05,17,09,56,13.40
2017,05,17,09,57,13.40
2017,05,17,09,58,13.30
2017,05,17,09,59,13.30
2017,05,17,10,00,13.20
2017,05,17,10,01,13.10
2017,05,17,10,02,13.10
2017,05,17,10,03,13.20
2017,05,17,10,04,13.20
2017,05,17,10,05,13.30
2017,05,17,10,06,13.30
2017,05,17,10,07,13.30
2017,05,17,10,08,13.40
2017,05,17,10,09,13.40
2017,05,17,10,10,13.40
2017,05,17,10,11,13.40
2017,05,17,10,12,13.40
2017,05,17,10,13,13.50
2017,05,17,10,14,13.50
2017,05,17,10,15,13.50
2017,05,17,10,16,13.50
2017,05,17,10,17,13.50
2017,05,17,10,18,13.50
2017,05,17,10,19,13.50
2017,05,17,10,20,13.40
2017,05,17,10,21,13.40
2017,05,17,10,22,13.30
2017,05,17,10,23,13.30
2017,05,17,10,24,13.30
2017,05,17,10,25,13.20
2017,05,17,10,26,13.20
2017,05,17,10,27,13.20
2017,05,17,10,28,13.20
2017,05,17,10,29,13.30
2017,05,17,10,30,13.40
2017,05,17,10,31,13.40
2017,05,17,10,32,13.50
2017,05,17,10,33,13.50
2017,05,17,10,34,13.50
2017,05,17,10,35,13.50
2017,05,17,10,36,13.50
2017,05,17,10,37,13.50
2017,05,17,10,38,13.50
2017,05,17,10,39,13.50
2017,05,17,10,40,13.50
2017,05,17,10,41,13.50
2017,05,17,10,42,13.50
2017,05,17,10,43,13.50
2017,05,17,10,44,13.50
2017,05,17,10,45,13.50
2017,05,17,10,46,13.50
2017,05,17,10,47,13.50
2017,05,17,10,48,13.40
2017,05,17,10,49,13.40
2017,05,17,10,50,13.40
2017,05,17,10,51,13.30
2017,05,17,10,52,13.30
2017,05,17,10,53,13.30
2017,05,17,10,54,13.30
2017,05,17,10,55,13.20
2017,05,17,10,56,13.30
2017,05,17,10,57,13.30
2017,05,17,10,58,13.40
2017,05,17,10,59,13.40
2017,05,17,11,00,13.40
2017,05,17,11,01,13.40
2017,05,17,11,02,13.30
2017,05,17,11,03,13.30
2017,05,17,11,04,13.40
2017,05,17,11,05,13.40
2017,05,17,11,06,13.50
2017,05,17,11,07,13.60
2017,05,17,11,08,13.60
2017,05,17,11,09,13.70
2017,05,17,11,10,13.70
2017,05,17,11,11,13.70
2017,05,17,11,12,13.70
2017,05,17,11,13,13.60
2017,05,17,11,14,13.60
2017,05,17,11,15,13.60
2017,05,17,11,16,13.60
2017,05,17,11,17,13.60
2017,05,17,11,18,13.60
2017,05,17,11,19,13.60
2017,05,17,11,20,13.60
2017,05,17,11,21,13.60
2017,05,17,11,22,13.70
2017,05,17,11,23,13.70
2017,05,17,11,24,13.70
2017,05,17,11,25,13.70
2017,05,17,11,26,13.70
2017,05,17,11,27,13.70
2017,05,17,11,28,13.70
2017,05,17,11,29,13.70
2017,05,17,11,30,13.80
2017,05,17,11,31,13.80
2017,05,17,11,32,13.80
2017,05,17,11,33,13.80
2017,05,17,11,34,13.90
2017,05,17,11,35,13.90
2017,05,17,11,36,13.90
2017,05,17,11,37,13.90
2017,05,17,11,38,13.90
2017,05,17,11,39,13.80
2017,05,17,11,40,13.80
2017,05,17,11,41,13.80
2017,05,17,11,42,13.90
2017,05,17,11,43,14.00
2017,05,17,11,44,14.10
2017,05,17,11,45,14.20
2017,05,17,11,46,14.20
2017,05,17,11,47,14.20
2017,05,17,11,48,14.20
2017,05,17,11,49,14.20
2017,05,17,11,50,14.20
2017,05,17,11,51,14.20
2017,05,17,11,52,14.20
2017,05,17,11,53,14.20
2017,05,17,11,54,14.20
2017,05,17,11,55,14.20
2017,05,17,11,56,14.20
2017,05,17,11,57,14.20
2017,05,17,11,58,14.20
2017,05,17,11,59,14.10
2017,05,17,12,00,14.00
2017,05,17,12,01,13.90
2017,05,17,12,02,13.80
2017,05,17,12,03,13.70
2017,05,17,12,04,13.70
2017,05,17,12,05,13.60
2017,05,17,12,06,13.60
2017,05,17,12,07,13.60
2017,05,17,12,08,13.60
2017,05,17,12,09,13.60
2017,05,17,12,10,13.60
2017,05,17,12,11,13.60
2017,05,17,12,12,13.50
2017,05,17,12,13,13.40
2017,05,17,12,14,13.40
2017,05,17,12,15,13.30
2017,05,17,12,16,13.30
2017,05,17,12,17,13.20
2017,05,17,12,18,13.20
2017,05,17,12,19,13.20
2017,05,17,12,20,13.20
2017,05,17,12,21,13.20
2017,05,17,12,22,13.20
2017,05,17,12,23,13.20
2017,05,17,12,24,13.20
2017,05,17,12,25,13.20
2017,05,17,12,26,13.30
2017,05,17,12,27,13.30
2017,05,17,12,28,13.30
2017,05,17,12,29,13.30
2017,05,17,12,30,13.30
2017,05,17,12,31,13.30
2017,05,17,12,32,13.30
2017,05,17,12,33,13.30
2017,05,17,12,34,13.30
2017,05,17,12,35,13.30
2017,05,17,12,36,13.30
2017,05,17,12,37,13.40
2017,05,17,12,38,13.40
2017,05,17,12,39,13.50
2017,05,17,12,40,13.50
2017,05,17,12,41,13.50
2017,05,17,12,42,13.50
2017,05,17,12,43,13.40
2017,05,17,12,44,13.40
2017,05,17,12,45,13.40
2017,05,17,12,46,13.30
2017,05,17,12,47,13.30
2017,05,17,12,48,13.30
2017,05,17,12,49,13.20
2017,05,17,12,50,13.20
2017,05,17,12,51,13.20
2017,05,17,12,52,13.20
2017,05,17,12,53,13.20
2017,05,17,12,54,13.20
2017,05,17,12,55,13.10
2017,05,17,12,56,13.10
2017,05,17,12,57,13.00
2017,05,17,12,58,13.00
2017,05,17,12,59,12.90
2017,05,17,13,00,12.90
2017,05,17,13,01,12.90
2017,05,17,13,02,12.90
2017,05,17,13,03,12.90
2017,05,17,13,04,12.90
2017,05,17,13,05,12.90
2017,05,17,13,06,12.90
2017,05,17,13,07,12.80
2017,05,17,13,08,12.80
2017,05,17,13,09,12.80
2017,05,17,13,10,12.80
2017,05,17,13,11,12.80
2017,05,17,13,12,12.90
2017,05,17,13,13,12.90
2017,05,17,13,14,12.90
2017,05,17,13,15,12.90
2017,05,17,13,16,12.90
2017,05,17,13,17,12.90
2017,05,17,13,18,12.90
2017,05,17,13,19,12.90
2017,05,17,13,20,12.90
2017,05,17,13,21,12.90
2017,05,17,13,22,12.90
2017,05,17,13,23,12.90
2017,05,17,13,24,13.00
2017,05,17,13,25,13.00
2017,05,17,13,26,13.10
2017,05,17,13,27,13.10
2017,05,17,13,28,13.20
2017,05,17,13,29,13.20
2017,05,17,13,30,13.20
2017,05,17,13,31,13.20
2017,05,17,13,32,13.20
2017,05,17,13,33,13.20
2017,05,17,13,34,13.20
2017,05,17,13,35,13.30
2017,05,17,13,36,13.30
2017,05,17,13,37,13.30
2017,05,17,13,38,13.40
2017,05,17,13,39,13.40
2017,05,17,13,40,13.40
2017,05,17,13,41,13.40
2017,05,17,13,42,13.40
2017,05,17,13,43,13.40
2017,05,17,13,44,13.40
2017,05,17,13,45,13.40
2017,05,17,13,46,13.50
2017,05,17,13,47,13.60
2017,05,17,13,48,13.60
2017,05,17,13,49,13.70
2017,05,17,13,50,13.70
2017,05,17,13,51,13.80
2017,05,17,13,52,13.80
2017,05,17,13,53,13.80
2017,05,17,13,54,13.80
2017,05,17,13,55,13.80
2017,05,17,13,56,13.80
2017,05,17,13,57,13.90
2017,05,17,13,58,13.90
2017,05,17,13,59,13.90
2017,05,17,14,00,14.00
2017,05,17,14,01,14.00
2017,05,17,14,02,14.00
2017,05,17,14,03,14.00
2017,05,17,14,04,14.00
2017,05,17,14,05,14.00
2017,05,17,14,06,14.00
2017,05,17,14,07,14.00
2017,05,17,14,08,14.00
2017,05,17,14,09,14.00
2017,05,17,14,10,14.00
2017,05,17,14,11,14.10
2017,05,17,14,12,14.10
2017,05,17,14,13,14.10
2017,05,17,14,14,14.10
2017,05,17,14,15,14.20
2017,05,17,14,16,14.20
2017,05,17,14,17,14.20
2017,05,17,14,18,14.20
2017,05,17,14,19,14.30
2017,05,17,14,20,14.30
2017,05,17,14,21,14.30
2017,05,17,14,22,14.30
2017,05,17,14,23,14.30
2017,05,17,14,24,14.40
2017,05,17,14,25,14.40
2017,05,17,14,26,14.40
2017,05,17,14,27,14.40
2017,05,17,14,28,14.40
2017,05,17,14,29,14.40
2017,05,17,14,30,14.30
2017,05,17,14,31,14.30
2017,05,17,14,32,14.30
2017,05,17,14,33,14.30
2017,05,17,14,34,14.40
2017,05,17,14,35,14.40
2017,05,17,14,36,14.50
2017,05,17,14,37,14.60
2017,05,17,14,38,14.60
2017,05,17,14,39,14.70
2017,05,17,14,40,14.70
2017,05,17,14,41,14.70
2017,05,17,14,42,14.70
2017,05,17,14,43,14.60
2017,05,17,14,44,14.60
2017,05,17,14,45,14.50
2017,05,17,14,46,14.40
2017,05,17,14,47,14.30
2017,05,17,14,48,14.20
2017,05,17,14,49,14.20
2017,05,17,14,50,14.10
2017,05,17,14,51,14.00
2017,05,17,14,52,14.00
2017,05,17,14,53,13.90
2017,05,17,14,54,13.90
2017,05,17,14,55,13.90
2017,05,17,14,56,13.90
2017,05,17,14,57,13.80
2017,05,17,14,58,13.80
2017,05,17,14,59,13.80
2017,05,17,15,00,13.80
2017,05,17,15,01,13.80
2017,05,17,15,02,13.80
2017,05,17,15,03,13.80
2017,05,17,15,04,13.80
2017,05,17,15,05,13.80
2017,05,17,15,06,13.80
2017,05,17,15,07,13.70
2017,05,17,15,08,13.70
2017,05,17,15,09,13.70
2017,05,17,15,10,13.70
2017,05,17,15,11,13.70
2017,05,17,15,12,13.70
2017,05,17,15,13,13.80
2017,05,17,15,14,13.90
2017,05,17,15,15,14.00
2017,05,17,15,16,14.10
2017,05,17,15,17,14.10
2017,05,17,15,18,14.10
2017,05,17,15,19,14.10
2017,05,17,15,20,14.10
2017,05,17,15,21,14.10
2017,05,17,15,22,14.10
2017,05,17,15,23,14.10
2017,05,17,15,24,14.00
2017,05,17,15,25,14.00
2017,05,17,15,26,13.90
2017,05,17,15,27,13.90
2017,05,17,15,28,13.80
2017,05,17,15,29,13.80
2017,05,17,15,30,13.80
2017,05,17,15,31,13.80
2017,05,17,15,32,13.80
2017,05,17,15,33,13.80
2017,05,17,15,34,13.80
2017,05,17,15,35,13.80
2017,05,17,15,36,13.70
2017,05,17,15,37,13.70
2017,05,17,15,38,13.70
2017,05,17,15,39,13.60
2017,05,17,15,40,13.60
2017,05,17,15,41,13.60
2017,05,17,15,42,13.60
2017,05,17,15,43,13.50
2017,05,17,15,44,13.50
2017,05,17,15,45,13.50
2017,05,17,15,46,13.60
2017,05,17,15,47,13.50
2017,05,17,15,48,13.60
2017,05,17,15,49,13.60
2017,05,17,15,50,13.60
2017,05,17,15,51,13.70
2017,05,17,15,52,13.70
2017,05,17,15,53,13.80
2017,05,17,15,54,13.90
2017,05,17,15,55,14.10
2017,05,17,15,56,14.20
2017,05,17,15,57,14.30
2017,05,17,15,58,14.30
2017,05,17,15,59,14.40
2017,05,17,16,00,14.50
2017,05,17,16,01,14.50
2017,05,17,16,02,14.50
2017,05,17,16,03,14.50
2017,05,17,16,04,14.40
2017,05,17,16,05,14.40
2017,05,17,16,06,14.40
2017,05,17,16,07,14.30
2017,05,17,16,08,14.40
2017,05,17,16,09,14.40
2017,05,17,16,10,14.40
2017,05,17,16,11,14.40
2017,05,17,16,12,14.40
2017,05,17,16,13,14.40
2017,05,17,16,14,14.40
2017,05,17,16,15,14.40
2017,05,17,16,16,14.40
2017,05,17,16,17,14.40
2017,05,17,16,18,14.40
2017,05,17,16,19,14.40
2017,05,17,16,20,14.40
2017,05,17,16,21,14.40
2017,05,17,16,22,14.40
2017,05,17,16,23,14.40
2017,05,17,16,24,14.40
2017,05,17,16,25,14.30
2017,05,17,16,26,14.30
2017,05,17,16,27,14.30
2017,05,17,16,28,14.30
2017,05,17,16,29,14.30
2017,05,17,16,30,14.30
2017,05,17,16,31,14.40
2017,05,17,16,32,14.40
2017,05,17,16,33,14.50
2017,05,17,16,34,14.50
2017,05,17,16,35,14.60
2017,05,17,16,36,14.60
2017,05,17,16,37,14.70
2017,05,17,16,38,14.70
2017,05,17,16,39,14.70
2017,05,17,16,40,14.70
2017,05,17,16,41,14.70
2017,05,17,16,42,14.70
2017,05,17,16,43,14.70
2017,05,17,16,44,14.70
2017,05,17,16,45,14.60
2017,05,17,16,46,14.60
2017,05,17,16,47,14.60
2017,05,17,16,48,14.60
2017,05,17,16,49,14.60
2017,05,17,16,50,14.60
2017,05,17,16,51,14.60
2017,05,17,16,52,14.70
2017,05,17,16,53,14.70
2017,05,17,16,54,14.70
2017,05,17,16,55,14.70
2017,05,17,16,56,14.70
2017,05,17,16,57,14.70
2017,05,17,16,58,14.70
2017,05,17,16,59,14.70
2017,05,17,17,00,14.70
2017,05,17,17,01,14.70
2017,05,17,17,02,14.60
2017,05,17,17,03,14.60
2017,05,17,17,04,14.60
2017,05,17,17,05,14.50
2017,05,17,17,06,14.50
2017,05,17,17,07,14.50
2017,05,17,17,08,14.50
2017,05,17,17,09,14.50
2017,05,17,17,10,14.50
2017,05,17,17,11,14.60
2017,05,17,17,12,14.60
2017,05,17,17,13,14.60
2017,05,17,17,14,14.60
2017,05,17,17,15,14.60
2017,05,17,17,16,14.60
2017,05,17,17,17,14.60
2017,05,17,17,18,14.60
2017,05,17,17,19,14.60
2017,05,17,17,20,14.50
2017,05,17,17,21,14.60
2017,05,17,17,22,14.60
2017,05,17,17,23,14.60
2017,05,17,17,24,14.70
2017,05,17,17,25,14.70
2017,05,17,17,26,14.80
2017,05,17,17,27,14.80
2017,05,17,17,28,14.80
2017,05,17,17,29,14.80
2017,05,17,17,30,14.80
2017,05,17,17,31,14.80
2017,05,17,17,32,14.80
2017,05,17,17,33,14.80
2017,05,17,17,34,14.70
2017,05,17,17,35,14.70
2017,05,17,17,36,14.70
2017,05,17,17,37,14.60
2017,05,17,17,38,14.60
2017,05,17,17,39,14.60
2017,05,17,17,40,14.50
2017,05,17,17,41,14.50
2017,05,17,17,42,14.50
2017,05,17,17,43,14.40
2017,05,17,17,44,14.40
2017,05,17,17,45,14.50
2017,05,17,17,46,14.50
2017,05,17,17,47,14.50
2017,05,17,17,48,14.60
2017,05,17,17,49,14.60
2017,05,17,17,50,14.60
2017,05,17,17,51,14.60
2017,05,17,17,52,14.70
2017,05,17,17,53,14.70
2017,05,17,17,54,14.70
2017,05,17,17,55,14.70
2017,05,17,17,56,14.70
2017,05,17,17,57,14.70
2017,05,17,17,58,14.70
2017,05,17,17,59,14.70
2017,05,17,18,00,14.80
2017,05,17,18,01,14.80
2017,05,17,18,02,14.80
2017,05,17,18,03,14.80
2017,05,17,18,04,14.70
2017,05,17,18,05,14.70
2017,05,17,18,06,14.60
2017,05,17,18,07,14.60
2017,05,17,18,08,14.50
2017,05,17,18,09,14.50
2017,05,17,18,10,14.40
2017,05,17,18,11,14.40
2017,05,17,18,12,14.30
2017,05,17,18,13,14.30
2017,05,17,18,14,14.30
2017,05,17,18,15,14.20
2017,05,17,18,16,14.20
2017,05,17,18,17,14.20
2017,05,17,18,18,14.20
2017,05,17,18,19,14.20
2017,05,17,18,20,14.10
2017,05,17,18,21,14.00
2017,05,17,18,22,14.00
2017,05,17,18,23,14.00
2017,05,17,18,24,13.90
2017,05,17,18,25,13.90
2017,05,17,18,26,13.90
2017,05,17,18,27,13.80
2017,05,17,18,28,13.80
2017,05,17,18,29,13.80
2017,05,17,18,30,13.80
2017,05,17,18,31,13.70
2017,05,17,18,32,13.70
2017,05,17,18,33,13.70
2017,05,17,18,34,13.70
2017,05,17,18,35,13.70